Independence, KS

10:15 AM CDT on April 23, 2019 (GMT -0500)
Independence Municipal

Weather History for KIDP - April, 2019

Change the Weather History Date:

Tuesday, April 23, 2019

  Actual Average (KCFV) Record (KCFV)
Temperature  
Mean Temperature 58 °F -  
Max Temperature 61 °F 69 °F 91 °F (2006)
Min Temperature 53 °F 47 °F 37 °F (1998)
Degree Days  
Heating Degree Days 8    
Growing Degree Days 8 (Base 50)    
Moisture  
Dew Point 53 °F    
Average Humidity 81    
Maximum Humidity 91    
Minimum Humidity 76    
Precipitation  
Precipitation 0.07 in - - ()
Sea Level Pressure  
Sea Level Pressure 30.06 in    
Wind  
Wind Speed 7 mph ()    
Max Wind Speed 14 mph    
Max Gust Speed 17 mph    
Visibility 9.8 miles    
Events Rain , Thunderstorm    
Averages and records for this station are not official NWS values.
T = Trace of Precipitation, MM = Missing Value Source: Averaged Metar Reports

Daily Weather History Graph

Daily Weather History Graph

Search for Another Location

Airport or City:

Astronomy

Apr. 23, 2019 Rise Set
Actual Time 6:38 AM CDT 8:05 PM CDT
Civil Twilight 6:11 AM CDT 8:32 PM CDT
Nautical Twilight 5:38 AM CDT 9:05 PM CDT
Astronomical Twilight 5:03 AM CDT 9:40 PM CDT
Moon No Moon Rise 9:50 AM CDT
Length of Visible Light 14h 21m
Length of Day
13h 26m
Waning Gibbous, 80% of the Moon is Illuminated
Today
Waning Gibbous
Apr 26
Last Quarter
May 4
New
May 11
First Quarter
May 18
Full

Hourly Weather History & Observations

Time (CDT) Temp. Dew Point Humidity Pressure Visibility Wind Dir Wind Speed Gust Speed Precip Events Conditions
12:15 AM 60.8 °F 54.9 °F 81% 30.06 in 10.0 mi NNW 3.5 mph - N/A   Overcast
12:35 AM 61.7 °F 54.9 °F 78% 30.06 in 10.0 mi Calm Calm - N/A   Overcast
12:55 AM 60.4 °F 55.0 °F 82% 30.06 in 10.0 mi North 6.9 mph - N/A   Overcast
1:15 AM 60.4 °F 55.2 °F 83% 30.06 in 10.0 mi NNW 5.8 mph - N/A   Overcast
1:35 AM 61.5 °F 54.7 °F 78% 30.06 in 10.0 mi North 6.9 mph - N/A   Overcast
1:55 AM 61.2 °F 55.0 °F 80% 30.06 in 10.0 mi North 5.8 mph - N/A   Overcast
2:15 AM 61.0 °F 55.0 °F 81% 30.06 in 10.0 mi North 6.9 mph - N/A   Overcast
2:35 AM 60.8 °F 55.4 °F 82% 30.06 in 10.0 mi North 5.8 mph - N/A   Overcast
2:55 AM 61.0 °F 55.0 °F 81% 30.05 in 10.0 mi North 6.9 mph - N/A   Overcast
3:15 AM 61.0 °F 54.7 °F 80% 30.05 in 10.0 mi North 8.1 mph - N/A   Overcast
3:35 AM 60.8 °F 55.4 °F 82% 30.05 in 10.0 mi North 11.5 mph - N/A   Overcast
3:55 AM 60.8 °F 53.4 °F 77% 30.04 in 10.0 mi North 10.4 mph - N/A   Overcast
4:15 AM 59.9 °F 52.2 °F 76% 30.04 in 10.0 mi North 10.4 mph - N/A   Mostly Cloudy
4:35 AM 59.4 °F 52.3 °F 78% 30.03 in 10.0 mi NNE 9.2 mph - N/A   Mostly Cloudy
4:55 AM 59.2 °F 52.3 °F 78% 30.03 in 10.0 mi North 8.1 mph - N/A   Mostly Cloudy
5:35 AM 59.2 °F 52.3 °F 78% 30.05 in 10.0 mi NNE 6.9 mph - N/A   Overcast
5:55 AM 58.8 °F 52.2 °F 79% 30.06 in 10.0 mi NNE 8.1 mph - N/A   Overcast
6:15 AM 58.1 °F 52.3 °F 81% 30.05 in 10.0 mi NNE 9.2 mph - N/A   Mostly Cloudy
6:35 AM 58.1 °F 52.0 °F 80% 30.05 in 10.0 mi NNE 10.4 mph - N/A   Mostly Cloudy
6:55 AM 57.9 °F 51.4 °F 79% 30.05 in 10.0 mi NNE 10.4 mph - N/A   Mostly Cloudy
7:15 AM 57.6 °F 51.6 °F 81% 30.07 in 10.0 mi NE 8.1 mph - N/A Rain Light Rain
7:35 AM 57.0 °F 51.6 °F 82% 30.06 in 10.0 mi NNE 10.4 mph - N/A Rain Light Rain
7:55 AM 56.8 °F 51.8 °F 83% 30.06 in 10.0 mi NNE 11.5 mph 17.3 mph N/A Rain Light Rain
8:15 AM 56.3 °F 50.9 °F 82% 30.05 in 10.0 mi NNE 13.8 mph - N/A   Overcast
8:35 AM 55.9 °F 49.6 °F 79% 30.05 in 10.0 mi NNE 13.8 mph - N/A   Overcast
8:55 AM 55.8 °F 49.3 °F 79% 30.07 in 10.0 mi NE 13.8 mph - N/A Thunderstorm Overcast
9:15 AM 54.9 °F 49.5 °F 82% 30.06 in 10.0 mi NNE 13.8 mph - N/A Rain Light Rain
9:35 AM 54.0 °F 50.4 °F 88% 30.09 in 10.0 mi NNW 10.4 mph - N/A Rain , Thunderstorm Light Thunderstorms and Rain
9:55 AM 53.6 °F 50.9 °F 91% 30.11 in 5.0 mi WNW 8.1 mph - 0.07 in Rain , Thunderstorm Heavy Thunderstorms and Rain